"Pseudo-MPEC" for C466Y41

Created 2026 Apr 16 23:35:04 UT using Find_Orb

Click here for an explanation of pseudo-MPECs

 
 Astrometry: 
     C466Y41*1C2026 04 16.28143311 19 13.750+17 56 10.64   ~4G7K 17.81GVNEOCP703
     C466Y41 1C2026 04 16.28368711 18 54.097+17 52 46.02   ~4G7K       VNEOCP703
     C466Y41 1C2026 04 16.28818911 18 14.850+17 45 54.36   ~4G7K       VNEOCP703
     C466Y41  C2026 04 16.30185111 16 05.755+17 22 42.44   ~4G85 18.1 GWNEOCPH01
     C466Y41  C2026 04 16.30504211 15 36.654+17 17 28.65   ~4G85 18.1 GWNEOCPH01
     C466Y41 1C2026 04 16.30576411 15 36.623+17 17 52.51   ~4G7o 18.19GVNEOCPI52
     C466Y41 1C2026 04 16.30652011 15 29.639+17 16 37.56   ~4G7o 17.96GVNEOCPI52
     C466Y41 1C2026 04 16.30689411 15 26.179+17 16 00.44   ~4G7o 18.07GVNEOCPI52
     C466Y41  C2026 04 16.31401011 14 13.559+17 02 26.24   ~4G85 18.3 GWNEOCPH01
     C466Y41  C2026 04 16.32481811 12 30.835+16 43 36.84   ~4G85 17.9 GWNEOCPH01
     C466Y41 KB2026 04 16.33050211 11 24.516+16 28 06.02   ~4G8K 18.4 VZNEOCPH36
     C466Y41 KB2026 04 16.33490911 10 42.091+16 19 57.07   ~4G8K 18.4 VZNEOCPH36
     C466Y41 1C2026 04 16.37331611 04 14.704+15 10 37.38   ~4G9K 17.87GVNEOCPI52
     C466Y41 1C2026 04 16.37368711 04 10.614+15 09 49.57   ~4G9K 17.69GVNEOCPI52
     C466Y41 1C2026 04 16.37406311 04 06.460+15 09 01.19   ~4G9K 17.73GVNEOCPI52
     C466Y41 1C2026 04 16.37444111 04 02.291+15 08 12.44   ~4G9K 17.80GVNEOCPI52
     C466Y41 KB2026 04 16.44313410 54 54.079+12 25 16.25   ~4GBZ 17.9 GWNEOCP900
     C466Y41 KB2026 04 16.44469410 54 31.834+12 20 57.52   ~4GBZ 17.3 GWNEOCP900
     C466Y41 KB2026 04 16.44625510 54 09.463+12 16 36.41   ~4GBZ 17.2 GWNEOCP900
     C466Y41 KB2026 04 16.47309610 47 19.109+10 56 15.97   ~4GBo 17.6 GXNEOCPQ06
     C466Y41 KB2026 04 16.47562310 46 38.279+10 48 11.30   ~4GBo 17.7 GXNEOCPQ06
     C466Y41 KB2026 04 16.47815110 45 57.023+10 40 00.80   ~4GBo 17.9 GXNEOCPQ06

Station data:
(703) Catalina Sky Survey  (N32.417029 W110.732640)  US/Arizona.  Observer E.
   J. Christensen. Measurers T. Beuden, V. F. Carvajal, D. Fay, J. B.
   Fazekas, D. C. Fuls, A. R. Gibbs, A. D. Grauer, H. Gröller, J. K. Hogan,
   R. A. Kowalski, S. M. Larson, G. J. Leonard, D. Rankin, R. L. Seaman, F.
   C. Shelly, K. W. Wierzchoś. 0.68 m Schmidt + 10K CCD.
(900) Moriyama  (N35.049753 E135.989940)  Japan.  Observer Y. Ikari. 0.26-m
   f/7.0 reflector + CCD.
(H01) Magdalena Ridge Observatory, Socorro  (N33.984833 W107.189333)  US/New
   Mexico.  Observers W. H. Ryan, E. V. Ryan. Measurer W. H. Ryan. 2.4-m
   f/8.9 reflector + CCD.
(H36) Sandlot Observatory, Scranton  (N38.797718 W95.706550)  US/Kansas.
   Observer G. Hug. 0.56-m reflector + CCD.
(I52) Steward Observatory, Mt. Lemmon Station  (N32.442570 W110.788920)
   US/Arizona. Measurers T. Beuden, V. F. Carvajal, D. Fay, J. B. Fazekas, D.
   C. Fuls, A. R. Gibbs, A. D. Grauer, H. Gröller, J. K. Hogan, R. A.
   Kowalski, S. M. Larson, G. J. Leonard, D. Rankin, R. L. Seaman, F. C.
   Shelly, K. W. Wierzchoś. 1.0-m prime focus + CCD.
(Q06) Tarui Observatory, Tarui  (N35.394791 E136.495470)  Japan.  Observer H.
   Watanabe. 0.35-m f/1.9 Schmidt-Cassegrain + CMO.

Orbital elements:  C466Y41
   Perigee 2026 Apr 16.806672 +/- 9.69e-5 TT = 19:21:36.4 (JD 2461147.306672)
Epoch 2026 Apr 16.0 TT = JDT 2461146.5                           AutoNEOCP
q184967.5691 +/- 73.6               (J2000 equator)
H   29.18 G 0.15                    Peri.  221.171266 +/- 0.008
                                    Node   328.741182 +/- 0.00052
e  48.07542279 +/- 0.0328           Incl.  138.012328 +/- 0.0007
From 22 observations 2026 Apr. 16 (4.7 hr); mean residual 0".40
Residuals in arcseconds: 
260416 703  .18-  .00     260416 H01  .12+  .16+    260416 900  .39+  .16+    
260416 703  1.7-  .62-    260416 H01  .21+  .18+    260416 900  .09+  .28+    
260416 703  .52+  .45+    260416 H36  .05+  .45+    260416 900  .26+  .08+    
260416 H01  .36+  .25+    260416 H36  .07+  1.1-    260416 Q06  .13-  .00     
260416 H01  .32+  .19+    260416 I52  .39-  .17-    260416 Q06  .26-  .18-    
260416 I52  .47+  .16+    260416 I52  .36-  .22-    260416 Q06  .12-  .10-    
260416 I52  .40+  .07+    260416 I52  .41-  .13-    
260416 I52  .36+  .07+    260416 I52  .29-  .08-    

Ephemerides (geocentric):
Date (UTC) HH   RA             Dec           delta  r     elong  mag " sig PA
---- --------  ------------   ------------  ------ ------ -----  --- --------
2026 04 17 00  04 25 35.920   -41 45 48.36  251570 1.0030  64.6 19.8  121  85
2026 04 17 01  03 55 23.648   -42 01 01.20  277654 1.0028  60.9 20.3  113  90
2026 04 17 02  03 30 32.418   -41 51 13.15  305877 1.0026  58.1 20??  105  94
2026 04 17 03  03 10 10.308   -41 28 02.76  335695 1.0025  55.8 21?? 97.4  97
2026 04 17 04  02 53 25.054   -40 58 32.49  366715 1.0023  54.1 21?? 90.8 100
2026 04 17 05  02 39 31.785   -40 26 44.73  398652 1.0021  52.6 21?? 85.1 102
2026 04 17 06  02 27 54.518   -39 54 52.92  431302 1.0020  51.5 22?? 80.0 104
2026 04 17 07  02 18 05.233   -39 24 07.03  464510 1.0018  50.6 22?? 75.6 106
2026 04 17 08  02 09 42.332   -38 55 00.83  498164 1.0016  49.8 22?? 71.7 107
2026 04 17 09  02 02 29.172   -38 27 47.78  532178 1.0015  49.1 22?? 68.3 108
2026 04 17 10  01 56 12.865   -38 02 30.20  566485 1.0013  48.6 22?? 65.3 109
2026 04 17 11  01 50 43.355   -37 39 04.51  601034 1.0011  48.1 23?? 62.6 110
2026 04 17 12  01 45 52.726   -37 17 24.18  635785 1.0010  47.8 23?? 60.2 111
2026 04 17 13  01 41 34.689   -36 57 21.46  670706 1.0008  47.4 23?? 58.1 111
2026 04 17 14  01 37 44.199   -36 38 48.32  705771 1.0007  47.1 23?? 56.2 112
2026 04 17 15  01 34 17.172   -36 21 36.89  740959 1.0005  46.9 23?? 54.4 112
2026 04 17 16  01 31 10.277   -36 05 39.80  776253 1.0003  46.7 23?? 52.9 113
2026 04 17 17  01 28 20.768   -35 50 50.25  811638 1.0002  46.5 23?? 51.4 113
2026 04 17 18  01 25 46.370   -35 37 02.03  847103 1.0000  46.3 24?? 50.1 114
2026 04 17 19  01 23 25.181   -35 24 09.56  882638 0.9998  46.2 24?? 48.9 114
2026 04 17 20  01 21 15.598   -35 12 07.80  918234 0.9997  46.0 24?? 47.8 114
2026 04 17 21  01 19 16.267   -35 00 52.21  953885 0.9995  45.9 24?? 46.8 114
2026 04 17 22  01 17 26.032   -34 50 18.75  989583 0.9994  45.8 24?? 45.9 115
2026 04 17 23  01 15 43.903   -34 40 23.79  .00685 0.9992  45.7 24?? 45.0 115
2026 04 18 00  01 14 09.026   -34 31 04.08  .00709 0.9990  45.6 24?? 44.2 115
2026 04 18 01  01 12 40.664   -34 22 16.67  .00733 0.9989  45.6 24?? 43.5 115
2026 04 18 02  01 11 18.174   -34 13 58.96  .00757 0.9987  45.5 24?? 42.8 116
2026 04 18 03  01 10 00.994   -34 06 08.58  .00781 0.9985  45.5 24?? 42.1 116
2026 04 18 04  01 08 48.632   -33 58 43.39  .00805 0.9984  45.4 24?? 41.5 116
2026 04 18 05  01 07 40.653   -33 51 41.47  .00829 0.9982  45.4 24?? 40.9 116
2026 04 18 06  01 06 36.674   -33 45 01.08  .00853 0.9981  45.3 25?? 40.4 116
2026 04 18 07  01 05 36.355   -33 38 40.64  .00877 0.9979  45.3 25?? 39.9 116
2026 04 18 08  01 04 39.392   -33 32 38.73  .00901 0.9977  45.3 25?? 39.4 117
2026 04 18 09  01 03 45.514   -33 26 54.03  .00925 0.9976  45.2 25?? 38.9 117
2026 04 18 10  01 02 54.480   -33 21 25.37  .00949 0.9974  45.2 25?? 38.5 117
2026 04 18 11  01 02 06.070   -33 16 11.66  .00974 0.9973  45.2 25?? 38.1 117
2026 04 18 12  01 01 20.089   -33 11 11.91  .00998 0.9971  45.2 25?? 37.7 117
2026 04 18 13  01 00 36.360   -33 06 25.22  .01022 0.9969  45.2 25?? 37.3 117
2026 04 18 14  00 59 54.721   -33 01 50.76  .01046 0.9968  45.1 25?? 37.0 117
2026 04 18 15  00 59 15.028   -32 57 27.75  .01070 0.9966  45.1 25?? 36.6 117
2026 04 18 16  00 58 37.147   -32 53 15.50  .01094 0.9965  45.1 25?? 36.3 117
2026 04 18 17  00 58 00.959   -32 49 13.37  .01118 0.9963  45.1 25?? 36.0 117
2026 04 18 18  00 57 26.352   -32 45 20.75  .01142 0.9962  45.1 25?? 35.7 117
2026 04 18 19  00 56 53.226   -32 41 37.09  .01166 0.9960  45.1 25?? 35.4 118
2026 04 18 20  00 56 21.489   -32 38 01.89  .01191 0.9958  45.1 25?? 35.1 118
2026 04 18 21  00 55 51.054   -32 34 34.66  .01215 0.9957  45.1 25?? 34.9 118
2026 04 18 22  00 55 21.845   -32 31 14.97  .01239 0.9955  45.1 25?? 34.6 118
2026 04 18 23  00 54 53.788   -32 28 02.41  .01263 0.9954  45.1 25?? 34.4 118